TimeEST,TemperatureF,Dew PointF,Humidity,Sea Level PressureIn,VisibilityMPH,Wind Direction,Wind SpeedMPH,Gust SpeedMPH,PrecipitationIn,Events,Conditions,WindDirDegrees,DateUTC
12:32 AM,30.9,28.0,89,29.82,10.0,SSW,8.1,-,N/A,,Mostly Cloudy,200,2014-01-17 05:32:00
12:53 AM,30.0,28.0,92,29.83,10.0,SSW,6.9,-,N/A,,Mostly Cloudy,200,2014-01-17 05:53:00
1:13 AM,28.0,26.1,92,29.81,10.0,SSW,5.8,-,N/A,,Scattered Clouds,210,2014-01-17 06:13:00
1:53 AM,30.0,27.0,88,29.83,10.0,SSW,4.6,-,N/A,,Overcast,200,2014-01-17 06:53:00
2:53 AM,28.0,26.1,92,29.83,9.0,SSW,4.6,-,N/A,,Mostly Cloudy,210,2014-01-17 07:53:00
3:53 AM,27.0,25.0,92,29.82,9.0,Calm,Calm,-,N/A,,Partly Cloudy,0,2014-01-17 08:53:00
4:09 AM,25.0,24.1,96,29.81,1.8,Calm,Calm,-,N/A,,Scattered Clouds,0,2014-01-17 09:09:00
4:17 AM,25.0,24.1,96,29.80,3.0,Calm,Calm,-,N/A,,Scattered Clouds,0,2014-01-17 09:17:00
4:53 AM,27.0,25.0,92,29.81,9.0,Calm,Calm,-,N/A,,Overcast,0,2014-01-17 09:53:00
5:17 AM,28.9,28.0,96,29.79,10.0,Calm,Calm,-,N/A,,Overcast,0,2014-01-17 10:17:00
5:25 AM,28.9,28.0,96,29.79,10.0,South,3.5,-,N/A,,Overcast,180,2014-01-17 10:25:00
5:53 AM,28.0,26.1,92,29.81,10.0,SW,5.8,-,N/A,,Partly Cloudy,220,2014-01-17 10:53:00
6:07 AM,28.9,27.0,92,29.79,10.0,SSW,6.9,-,N/A,,Mostly Cloudy,200,2014-01-17 11:07:00
6:30 AM,32.0,30.0,92,29.78,10.0,South,9.2,-,N/A,,Overcast,180,2014-01-17 11:30:00
6:53 AM,32.0,30.0,92,29.80,10.0,South,10.4,-,N/A,,Overcast,190,2014-01-17 11:53:00
8:32 AM,32.0,30.9,96,29.79,1.8,SSW,4.6,-,0.01,Snow,Light Snow,200,2014-01-17 13:32:00
8:39 AM,33.1,30.9,92,29.78,2.0,South,5.8,-,0.01,Snow,Light Snow,180,2014-01-17 13:39:00
8:48 AM,33.8,30.2,87,29.79,1.0,South,5.8,-,0.01,Snow,Light Snow,180,2014-01-17 13:48:00
8:53 AM,32.0,30.9,96,29.80,1.0,South,6.9,-,0.02,Snow,Light Snow,190,2014-01-17 13:53:00
8:59 AM,32.0,30.9,96,29.79,0.8,South,6.9,-,0.00,Snow,Light Snow,190,2014-01-17 13:59:00
9:15 AM,32.0,30.9,96,29.79,2.0,South,8.1,-,0.01,Snow,Light Snow,180,2014-01-17 14:15:00
9:23 AM,32.0,30.9,96,29.80,5.0,SSW,8.1,-,0.01,Snow,Light Snow,200,2014-01-17 14:23:00
9:35 AM,32.0,30.9,96,29.81,1.8,SW,10.4,-,0.01,Snow,Light Snow,220,2014-01-17 14:35:00
9:37 AM,32.0,30.9,96,29.81,0.8,SW,20.7,28.8,0.01,Snow,Light Snow,230,2014-01-17 14:37:00
9:41 AM,30.0,28.0,92,29.82,0.2,WNW,24.2,32.2,0.02,Fog-Snow,Snow,290,2014-01-17 14:41:00
9:46 AM,28.9,26.1,89,29.82,2.0,West,18.4,32.2,0.02,Snow,Light Snow,280,2014-01-17 14:46:00
9:50 AM,28.4,24.8,86,29.83,1.0,West,15.0,27.6,0.02,Snow,Light Snow,280,2014-01-17 14:50:00
9:53 AM,28.9,25.0,85,29.85,1.0,West,16.1,-,0.02,Snow,Light Snow,270,2014-01-17 14:53:00
9:59 AM,28.9,24.1,82,29.84,2.0,WNW,15.0,-,0.00,Snow,Light Snow,290,2014-01-17 14:59:00
10:02 AM,28.9,24.1,82,29.84,4.0,West,17.3,-,0.00,Snow,Light Snow,280,2014-01-17 15:02:00
10:25 AM,28.0,23.0,81,29.86,6.0,West,15.0,23.0,0.00,Snow,Light Snow,270,2014-01-17 15:25:00
10:40 AM,28.0,23.0,81,29.87,2.5,WNW,10.4,19.6,0.00,Snow,Light Snow,290,2014-01-17 15:40:00
10:50 AM,26.6,23.0,86,29.88,1.5,West,12.7,19.6,0.00,Snow,Light Snow,280,2014-01-17 15:50:00
10:53 AM,27.0,23.0,85,29.90,1.2,NW,10.4,19.6,0.00,Snow,Light Snow,310,2014-01-17 15:53:00
11:04 AM,27.0,23.0,85,29.88,0.8,West,5.8,-,0.00,Snow,Light Snow,260,2014-01-17 16:04:00
11:11 AM,27.0,21.9,81,29.88,1.5,West,16.1,-,0.00,Snow,Light Snow,270,2014-01-17 16:11:00
11:16 AM,27.0,19.9,75,29.89,3.0,WNW,11.5,19.6,0.00,Snow,Light Snow,300,2014-01-17 16:16:00
11:36 AM,26.1,19.9,78,29.90,2.5,WSW,16.1,-,0.00,Snow,Light Snow,250,2014-01-17 16:36:00
11:43 AM,25.0,19.9,81,29.90,0.8,West,16.1,-,0.00,Snow,Light Snow,260,2014-01-17 16:43:00
11:53 AM,25.0,19.9,81,29.92,1.0,West,10.4,-,0.00,Snow,Light Snow,270,2014-01-17 16:53:00
12:14 PM,25.0,19.0,78,29.90,9.0,West,12.7,-,0.00,,Overcast,260,2014-01-17 17:14:00
12:42 PM,24.1,17.1,75,29.90,1.8,West,11.5,-,0.00,Snow,Light Snow,280,2014-01-17 17:42:00
12:53 PM,23.0,17.1,78,29.92,2.0,West,10.4,-,0.00,Snow,Light Snow,280,2014-01-17 17:53:00
1:04 PM,24.1,18.0,77,29.90,1.8,West,11.5,-,0.00,Snow,Light Snow,280,2014-01-17 18:04:00
1:13 PM,24.1,17.1,75,29.90,2.5,West,12.7,20.7,0.00,Snow,Light Snow,280,2014-01-17 18:13:00
1:19 PM,24.1,17.1,75,29.90,3.0,West,12.7,-,0.00,Snow,Light Snow,270,2014-01-17 18:19:00
1:24 PM,24.1,17.1,75,29.90,2.5,West,10.4,-,0.00,Snow,Light Snow,280,2014-01-17 18:24:00
1:36 PM,24.1,18.0,77,29.91,1.8,WNW,12.7,-,0.00,Snow,Light Snow,290,2014-01-17 18:36:00
1:53 PM,23.0,16.0,74,29.93,3.0,West,13.8,18.4,0.00,Snow,Light Snow,280,2014-01-17 18:53:00
2:10 PM,21.9,15.1,75,29.92,1.8,WNW,11.5,23.0,0.00,Snow,Light Snow,290,2014-01-17 19:10:00
2:34 PM,21.0,15.1,78,29.94,3.0,West,15.0,-,0.00,Snow,Light Snow,280,2014-01-17 19:34:00
2:53 PM,21.0,15.1,78,29.97,3.0,West,13.8,-,0.00,Snow,Light Snow,270,2014-01-17 19:53:00
3:11 PM,21.0,14.0,74,29.96,5.0,West,18.4,23.0,0.00,Snow,Light Snow,260,2014-01-17 20:11:00
3:14 PM,21.0,14.0,74,29.96,2.5,West,18.4,23.0,0.00,Snow,Light Snow,270,2014-01-17 20:14:00
3:21 PM,21.0,12.9,71,29.97,3.0,West,16.1,-,0.00,Snow,Light Snow,260,2014-01-17 20:21:00
3:40 PM,19.9,9.0,62,29.98,10.0,West,17.3,-,0.00,,Overcast,260,2014-01-17 20:40:00
3:53 PM,19.9,9.0,62,30.01,10.0,WSW,13.8,25.3,0.00,,Overcast,240,2014-01-17 20:53:00
4:53 PM,19.0,7.0,59,30.05,10.0,WSW,16.1,-,N/A,,Overcast,240,2014-01-17 21:53:00
5:53 PM,18.0,7.0,62,30.07,10.0,West,10.4,-,N/A,,Overcast,270,2014-01-17 22:53:00
6:53 PM,17.1,5.0,59,30.10,10.0,WSW,8.1,-,N/A,,Overcast,240,2014-01-17 23:53:00
7:53 PM,16.0,3.9,59,30.11,10.0,WSW,11.5,-,N/A,,Partly Cloudy,250,2014-01-18 00:53:00
8:53 PM,15.1,5.0,64,30.12,10.0,West,10.4,-,N/A,,Mostly Cloudy,280,2014-01-18 01:53:00
9:53 PM,12.0,3.9,70,30.14,10.0,WSW,4.6,-,N/A,,Scattered Clouds,240,2014-01-18 02:53:00
10:53 PM,12.9,3.9,67,30.14,10.0,SW,8.1,-,N/A,,Overcast,220,2014-01-18 03:53:00
11:12 PM,12.9,5.0,71,30.11,10.0,SW,8.1,-,N/A,,Overcast,230,2014-01-18 04:12:00
11:53 PM,12.9,6.1,74,30.13,10.0,SW,8.1,-,N/A,,Overcast,230,2014-01-18 04:53:00